{"data":{"norad_id":68207,"intl_designator":"2026-053A","name":"STARLINK-36986","alt_names":[],"object_type":"PAYLOAD","status":"ACTIVE","operator":null,"country":"US","launch_date":"2026-03-17","launch_site_code":"AFWTR","launch_vehicle":null,"mission":null,"orbit_class":"UNKNOWN","rcs_meters":null,"size_class":null,"mass_kg":null,"dimensions":null,"purposes":["comms"],"wikipedia_slug":null,"has_3d_model":false,"image_url":null,"decayed_at":null,"tle_current":{"epoch":"2026-05-25T02:20:03.352128Z","epoch_age_seconds":56830,"freshness":"FRESH","line1":"1 68207U 26053A   26145.09726102  .00017097  00000+0  53041-3 0  9993","line2":"2 68207  97.2885  20.4843 0001205  91.5937 268.5444 15.33461890 11923","mean_motion":15.3346189,"eccentricity":0.0001205,"inclination_deg":97.2885,"raan_deg":20.4843,"arg_perigee_deg":91.5937,"mean_anomaly_deg":268.5444,"bstar":0.00053041,"rev_number":1192,"period_min":93.905170346294,"perigee_km":464.66826477688,"apogee_km":466.31757958813,"semimajor_km":6843.6299221825,"source":"CELESTRAK","updated_at":"2026-05-25T13:38:21.876911Z"}}}